[[{"header":{"parameterUnit":"m.s-1","parameterCategory":1,"la1":30.2991,"la2":30.254,"lo1":-89.0895,"lo2":-89.0444,"dy":0.0017,"dx":0.0017,"nx":28,"ny":28,"refTime":"2023-09-08T03:00:00:Z","depth":0,"parameterNumber":2,"parameterNumberName":"U-component_of_WINDS"},"data":[0,0,0,0,0,0,0,0,0,0,0,0,0,0,0,0,0,0,0,0,0,0,0,0,0,0,0,0,0,0,0,0,0,0,0,0,0,0,0,0,0,0,0,0,0,0,0,0,0,0,0,0,0,0,0,0,0,0,2.1062,2.1063,0,2.1093,2.1093,2.1094,2.1044,2.1042,2.104,2.1039,2.1069,2.1071,2.1073,0,0,0,0,0,0,0,0,0,0,0,0,0,2.096,2.0963,2.1062,2.1063,2.1063,2.1093,2.1093,2.1094,2.1044,2.1042,2.104,2.1038,2.1068,2.1071,2.1074,0,0,0,0,0,0,0,0,0,0,0,0,0,2.0999,2.0963,2.1062,2.1042,2.104,2.1093,2.1093,2.1094,2.1044,2.1042,2.1039,2.1037,2.1067,2.107,2.1074,2.1148,0,0,2.1085,2.1086,0,0,0,0,0,0,0,0,2.0997,2.1003,2.1045,2.1043,2.1042,2.1062,2.1068,2.1112,2.1045,2.1043,2.1038,2.1036,2.1068,2.1072,2.1083,2.1149,2.115,2.1085,2.1087,2.1089,2.109,0,0,0,0,0,0,0,2.0995,2.1001,2.1074,2.1045,2.1044,2.1031,2.1034,2.1076,2.107,2.1043,2.1039,2.1044,2.1067,2.108,2.1083,2.1151,2.1085,2.1088,2.1091,2.1092,2.1279,2.1282,0,0,0,0,0,0,2.0994,2.1,2.1073,2.1075,2.1013,2.1035,2.1038,2.1058,2.1069,2.1068,2.1046,2.1041,2.1075,2.1079,2.1084,2.1171,2.1089,2.1092,2.1094,2.1277,2.128,2.1283,0,0,0,0,0,0,2.0992,2.1002,2.1072,2.1037,2.1045,2.104,2.1062,2.106,2.1072,2.1071,2.107,2.106,2.1073,2.1079,2.1132,2.1172,2.1094,2.1097,2.1273,2.1278,2.1281,2.1346,0,0,0,0,0,0,2.099,2.1001,2.1029,2.1038,2.1047,2.112,2.1065,2.1062,2.1079,2.1073,2.1084,2.1083,2.1071,2.1127,2.1136,2.1175,2.11,2.127,2.1275,2.128,2.134,2.1352,2.1362,0,0,0,0,0,2.0986,2.1045,2.1031,2.104,2.1082,2.1123,2.1128,2.1113,2.1082,2.111,2.111,2.1083,2.1166,2.1133,2.1143,2.1183,2.1267,2.1274,2.128,2.1336,2.135,2.1362,0,0,0,0,0,0,2.1041,2.1046,2.103,2.1093,2.1108,2.1114,2.1149,2.1128,2.1152,2.1145,2.1126,2.1129,2.1186,2.119,2.1153,2.1256,2.1211,2.122,2.1251,2.1264,2.1275,2.1272,2.1103,0,0,0,0,0,2.106,2.1093,2.1096,2.1152,2.1161,2.1154,2.1171,2.1159,2.1173,2.1178,2.1182,2.1196,2.1226,2.1245,2.1272,2.1341,2.1343,2.1374,2.1385,2.1394,2.1401,2.1438,2.1452,2.1304,2.1304,2.1304,0,0,2.1101,2.1108,2.113,2.1163,2.1173,2.1208,2.1159,2.1197,2.1223,2.1184,2.1235,2.1238,2.1253,2.1315,2.1342,2.132,2.1443,2.1402,2.1409,2.1411,2.1446,2.146,2.1473,2.1308,2.1307,2.1307,0,0,2.1192,2.1201,2.1249,2.126,2.1276,2.1271,2.1283,2.1292,2.1293,2.1344,2.1316,2.1346,2.1397,2.1409,2.1421,2.1519,2.1496,2.1529,2.1585,2.1621,2.1633,2.1643,2.1678,2.1691,2.1536,2.1537,2.1537,0,2.124,2.1291,2.1276,2.1317,2.1332,2.13,2.1348,2.136,2.1384,2.1395,2.137,2.1435,2.1442,2.1507,2.1531,2.1542,2.1555,2.1527,2.1633,2.1643,2.1652,2.1685,2.1698,2.154,2.154,2.154,2.1539,0,2.1349,2.1386,2.1422,2.1447,2.1467,2.1512,2.1503,2.1525,2.1512,2.151,2.1563,2.1571,2.1599,2.1614,2.1601,2.1677,2.1663,2.1636,2.1591,2.167,2.1701,2.1714,2.1546,2.1545,2.1543,2.1542,0,0,2.1474,2.1491,2.1505,2.1516,2.1532,2.1559,2.1603,2.1631,2.1651,2.1669,2.1705,2.175,2.1725,2.174,2.1728,2.176,2.1838,2.1729,2.1729,2.1749,2.1922,2.1942,2.1957,2.1823,2.1825,2.1827,2.1921,0,2.1565,2.164,2.1628,2.1701,2.1734,2.1705,2.1743,2.1757,2.1757,2.1785,2.1784,2.1817,2.1782,2.1791,2.1821,2.1822,2.1872,2.1815,2.1856,2.1857,2.1852,2.1973,2.1994,2.2082,2.1933,2.1935,2.1936,0,2.168,2.1703,2.178,2.1791,2.1805,2.1839,2.1865,2.1893,2.1908,2.1906,2.1923,2.1906,2.1949,2.1905,2.1965,2.1926,2.1942,2.1945,2.1948,2.1951,2.1901,2.1978,2.211,2.2123,2.1955,2.1954,2.1952,0,2.1763,2.1814,2.1866,2.1876,2.1891,2.1916,2.1924,2.1937,2.1955,2.1978,2.199,2.2017,2.2032,2.2054,2.2044,2.2013,2.2106,2.206,2.2105,2.2105,2.2125,2.2124,2.226,2.2137,2.2137,2.2136,2.2136,0,2.1865,2.1913,2.1903,2.1936,2.1988,2.1975,2.2027,2.2031,2.2044,2.2076,2.2052,2.2083,2.2069,2.2099,2.2093,2.2143,2.215,2.2149,2.2147,2.2151,2.2151,2.2161,2.2154,2.214,2.2139,2.2138,2.2138,0,2.1966,2.1962,2.2017,2.2027,2.2031,2.207,2.2078,2.2109,2.2107,2.2149,2.2158,2.2156,2.219,2.2183,2.2221,2.2216,2.228,2.227,2.2274,2.2272,2.2317,2.2312,2.2463,2.2483,2.2347,2.2349,2.235,0,2.2031,2.2067,2.2082,2.2103,2.2112,2.2145,2.2164,2.2152,2.2173,2.2195,2.2222,2.2255,2.228,2.2336,2.2338,2.2367,2.2357,2.2408,2.2361,2.2364,2.2357,2.2355,2.2358,2.2417,2.2418,2.242,2.2421,0,2.2147,2.2143,2.2172,2.22,2.2224,2.2245,2.2264,2.2282,2.2272,2.2297,2.2332,2.2352,2.2391,2.2423,2.2451,2.2458,2.2438,2.2436,2.2447,2.2452,2.2453,2.2453,2.2299,2.2432,2.2431,2.243,2.2429,2.2429,2.2232,2.2263,2.2278,2.2311,2.2325,2.2344,2.2373,2.2376,2.2405,2.2436,2.2428,2.2468,2.2483,2.2518,2.2529,2.256,2.2541,2.2558,2.2562,2.2566,2.2572,2.2449,2.2565,2.2565,2.2564,2.2564,2.2564,0,2.2346,2.2355,2.2385,2.2414,2.244,2.242,2.244,2.2463,2.2499,2.2515,2.2541,2.2582,2.2614,2.2619,2.2649,2.2673,2.2665,2.2681,2.2679,2.2681,2.2587,2.2574,2.2688,2.2688,2.2688,2.2688,2.2688,2.2688,2.2408,2.246,2.2459,2.2517,2.2526,2.2565,2.2579,2.2596,2.261,2.2657,2.2683,2.2686,2.2699,2.273,2.2758,2.2759,2.2771,2.2791,2.2788,2.27,2.2688,2.2676,2.2663,2.2794,2.2794,2.2879,2.288,2.2881]},{"header":{"parameterUnit":"m.s-1","parameterCategory":1,"la1":30.2991,"la2":30.254,"lo1":-89.0895,"lo2":-89.0444,"dy":0.0017,"dx":0.0017,"nx":28,"ny":28,"refTime":"2023-09-08T03:00:00:Z","depth":0,"parameterNumber":3,"parameterNumberName":"V-component_of_WINDS"},"data":[0,0,0,0,0,0,0,0,0,0,0,0,0,0,0,0,0,0,0,0,0,0,0,0,0,0,0,0,0,0,0,0,0,0,0,0,0,0,0,0,0,0,0,0,0,0,0,0,0,0,0,0,0,0,0,0,0,0,-1.7249,-1.725,0,-1.7325,-1.7326,-1.7327,-1.7363,-1.7363,-1.7363,-1.7363,-1.7439,-1.7441,-1.7443,0,0,0,0,0,0,0,0,0,0,0,0,0,-1.7131,-1.7133,-1.7249,-1.725,-1.7251,-1.7325,-1.7326,-1.7327,-1.7363,-1.7363,-1.7363,-1.7363,-1.7438,-1.7441,-1.7443,0,0,0,0,0,0,0,0,0,0,0,0,0,-1.7192,-1.7133,-1.7248,-1.7277,-1.7281,-1.7325,-1.7326,-1.7328,-1.7363,-1.7363,-1.7363,-1.7363,-1.7437,-1.744,-1.7443,-1.7464,0,0,-1.7453,-1.7454,0,0,0,0,0,0,0,0,-1.7188,-1.7196,-1.7272,-1.7275,-1.7279,-1.7335,-1.7313,-1.7373,-1.7363,-1.7332,-1.7363,-1.7363,-1.7404,-1.741,-1.7424,-1.7467,-1.7471,-1.7453,-1.7455,-1.7456,-1.7457,0,0,0,0,0,0,0,-1.7184,-1.7193,-1.7279,-1.7273,-1.7278,-1.7286,-1.7294,-1.7324,-1.7367,-1.7334,-1.7337,-1.7346,-1.7406,-1.7421,-1.7426,-1.7472,-1.7453,-1.7456,-1.7458,-1.7459,-1.7535,-1.7536,0,0,0,0,0,0,-1.7176,-1.7189,-1.7276,-1.7281,-1.7233,-1.7288,-1.7298,-1.7317,-1.7367,-1.7375,-1.7346,-1.7347,-1.7416,-1.7423,-1.7429,-1.7457,-1.7456,-1.7459,-1.7461,-1.7535,-1.7536,-1.7536,0,0,0,0,0,0,-1.7173,-1.7183,-1.7273,-1.7236,-1.7248,-1.729,-1.7311,-1.7318,-1.7334,-1.7376,-1.7383,-1.7354,-1.7416,-1.7425,-1.7455,-1.746,-1.7461,-1.7463,-1.7535,-1.7535,-1.7536,-1.7511,0,0,0,0,0,0,-1.7169,-1.7182,-1.7191,-1.7236,-1.725,-1.7299,-1.7312,-1.732,-1.7339,-1.7342,-1.7385,-1.7392,-1.7417,-1.745,-1.7458,-1.7464,-1.7466,-1.7535,-1.7535,-1.7536,-1.7512,-1.7511,-1.751,0,0,0,0,0,-1.7165,-1.718,-1.7191,-1.7201,-1.7262,-1.7299,-1.7307,-1.7336,-1.734,-1.7348,-1.7375,-1.7391,-1.7458,-1.7453,-1.7462,-1.7469,-1.7535,-1.7535,-1.7535,-1.7513,-1.7511,-1.751,0,0,0,0,0,0,-1.7134,-1.7187,-1.7199,-1.723,-1.726,-1.7305,-1.7317,-1.7333,-1.7362,-1.7363,-1.7397,-1.7406,-1.7433,-1.7454,-1.7448,-1.7491,-1.7498,-1.75,-1.7477,-1.7476,-1.7475,-1.7469,-1.7468,0,0,0,0,0,-1.7131,-1.7157,-1.7201,-1.7224,-1.7239,-1.7275,-1.7292,-1.7312,-1.7344,-1.7356,-1.7385,-1.7415,-1.7443,-1.7461,-1.7488,-1.7515,-1.7525,-1.7524,-1.7523,-1.7522,-1.7524,-1.7539,-1.7539,-1.7537,-1.7537,-1.7537,0,0,-1.7124,-1.7156,-1.7171,-1.7219,-1.7244,-1.727,-1.7286,-1.7312,-1.7331,-1.736,-1.7391,-1.7413,-1.7448,-1.7477,-1.7491,-1.7495,-1.7526,-1.7522,-1.7521,-1.7524,-1.7539,-1.754,-1.754,-1.7537,-1.7537,-1.7537,0,0,-1.7125,-1.7152,-1.7174,-1.72,-1.7238,-1.7262,-1.7267,-1.731,-1.7326,-1.7358,-1.738,-1.7403,-1.745,-1.7474,-1.7493,-1.7503,-1.7518,-1.7511,-1.7505,-1.752,-1.752,-1.752,-1.7524,-1.7525,-1.7512,-1.7512,-1.7512,0,-1.7112,-1.7153,-1.7183,-1.7209,-1.7229,-1.7257,-1.7279,-1.7302,-1.7347,-1.736,-1.7364,-1.7424,-1.745,-1.7484,-1.7487,-1.7501,-1.7507,-1.7506,-1.7518,-1.7518,-1.7519,-1.7523,-1.7524,-1.7511,-1.7511,-1.7511,-1.7511,0,-1.7134,-1.7162,-1.7175,-1.7219,-1.724,-1.7264,-1.7297,-1.7315,-1.7333,-1.7356,-1.7387,-1.7419,-1.7454,-1.7464,-1.7481,-1.7501,-1.7502,-1.7511,-1.7518,-1.7518,-1.7522,-1.7524,-1.7509,-1.751,-1.751,-1.751,0,0,-1.7119,-1.7179,-1.7183,-1.7204,-1.7248,-1.7269,-1.7294,-1.7329,-1.7343,-1.7373,-1.7394,-1.7433,-1.7443,-1.7463,-1.7483,-1.7496,-1.7502,-1.7504,-1.7505,-1.7503,-1.7526,-1.7519,-1.752,-1.7512,-1.7513,-1.7513,-1.7523,0,-1.7126,-1.7172,-1.7201,-1.7235,-1.726,-1.7287,-1.7308,-1.7337,-1.7359,-1.7384,-1.7408,-1.7436,-1.7445,-1.7458,-1.7472,-1.7498,-1.7507,-1.7498,-1.7532,-1.7532,-1.7522,-1.7522,-1.7515,-1.7523,-1.7525,-1.7525,-1.7525,0,-1.7142,-1.7172,-1.7209,-1.725,-1.7262,-1.7281,-1.7315,-1.7338,-1.7371,-1.7386,-1.7409,-1.7429,-1.7455,-1.746,-1.7496,-1.7489,-1.7504,-1.7519,-1.752,-1.7525,-1.7529,-1.7527,-1.7526,-1.7527,-1.7528,-1.7528,-1.7528,0,-1.7127,-1.7176,-1.7205,-1.7221,-1.727,-1.7283,-1.7303,-1.7337,-1.7355,-1.7385,-1.7397,-1.7429,-1.7446,-1.747,-1.7498,-1.7498,-1.7531,-1.7538,-1.7544,-1.7543,-1.755,-1.7549,-1.7552,-1.7559,-1.7559,-1.7559,-1.7559,0,-1.7133,-1.7154,-1.7199,-1.7217,-1.7241,-1.7273,-1.7296,-1.7319,-1.7348,-1.737,-1.7394,-1.7414,-1.745,-1.7474,-1.7495,-1.7522,-1.7529,-1.7542,-1.7548,-1.754,-1.7539,-1.7551,-1.7551,-1.756,-1.756,-1.7559,-1.7559,0,-1.712,-1.7151,-1.7184,-1.7228,-1.7239,-1.7255,-1.7292,-1.731,-1.7333,-1.7361,-1.7369,-1.7406,-1.7435,-1.7465,-1.7505,-1.752,-1.7546,-1.7553,-1.7535,-1.7538,-1.7543,-1.7542,-1.7554,-1.7557,-1.7561,-1.7561,-1.7561,0,-1.7122,-1.714,-1.7185,-1.7202,-1.7222,-1.7249,-1.7268,-1.73,-1.7319,-1.7358,-1.7371,-1.7402,-1.7429,-1.7475,-1.7505,-1.7535,-1.7544,-1.7546,-1.7548,-1.754,-1.7544,-1.7543,-1.7545,-1.7545,-1.7544,-1.7544,-1.7544,0,-1.7122,-1.7137,-1.7164,-1.7197,-1.722,-1.7248,-1.7276,-1.7288,-1.7324,-1.7345,-1.7376,-1.7397,-1.7437,-1.7468,-1.7502,-1.7523,-1.7539,-1.7543,-1.7546,-1.7539,-1.7528,-1.7534,-1.7532,-1.7543,-1.7543,-1.7543,-1.7543,-1.7543,-1.7118,-1.7134,-1.7169,-1.7199,-1.7223,-1.7249,-1.7268,-1.7293,-1.732,-1.7356,-1.7373,-1.7404,-1.7436,-1.7483,-1.7503,-1.7528,-1.7532,-1.7537,-1.7538,-1.7539,-1.7537,-1.7523,-1.7534,-1.7534,-1.7534,-1.7534,-1.7534,0,-1.7119,-1.7143,-1.717,-1.7209,-1.7232,-1.7246,-1.7278,-1.7296,-1.7323,-1.7352,-1.7378,-1.7414,-1.7444,-1.7476,-1.7507,-1.752,-1.7529,-1.7528,-1.7527,-1.7532,-1.7531,-1.7525,-1.752,-1.752,-1.752,-1.752,-1.752,-1.752,-1.7123,-1.7152,-1.717,-1.7211,-1.7234,-1.7265,-1.7282,-1.7305,-1.7329,-1.7367,-1.7393,-1.7413,-1.7443,-1.7478,-1.7505,-1.7514,-1.7525,-1.7521,-1.7532,-1.7531,-1.7532,-1.7533,-1.7528,-1.7523,-1.7523,-1.7531,-1.7531,-1.7531]}]]